Time,TemperatureF,DewpointF,PressureIn,WindDirection,WindDirectionDegrees,WindSpeedMPH,WindSpeedGustMPH,Humidity,HourlyPrecipIn,Conditions,Clouds,dailyrainin,SoftwareType,DateUTC
2013-10-02 00:03:00,56.2,29.6,29.86,NNE,15,0.0,0.0,36,0.00,,,0.00,Wunderground v.1.15,2013-10-02 07:03:00,
2013-10-02 00:09:00,55.8,29.2,29.87,NNW,328,0.0,0.0,36,0.00,,,0.00,Wunderground v.1.15,2013-10-02 07:09:00,
2013-10-02 00:15:00,55.9,29.3,29.86,North,350,0.0,0.0,36,0.00,,,0.00,Wunderground v.1.15,2013-10-02 07:15:00,
2013-10-02 00:21:00,55.4,29.5,29.86,WNW,302,0.0,0.0,37,0.00,,,0.00,Wunderground v.1.15,2013-10-02 07:21:00,
2013-10-02 00:27:00,55.0,29.2,29.87,NW,316,0.0,0.0,37,0.00,,,0.00,Wunderground v.1.15,2013-10-02 07:27:00,
2013-10-02 00:33:00,54.5,29.4,29.87,West,274,0.0,0.0,38,0.00,,,0.00,Wunderground v.1.15,2013-10-02 07:33:00,
2013-10-02 00:39:00,54.0,28.9,29.87,WNW,285,0.0,0.0,38,0.00,,,0.00,Wunderground v.1.15,2013-10-02 07:39:00,
2013-10-02 00:44:00,53.6,28.6,29.87,NW,312,0.0,0.0,38,0.00,,,0.00,Wunderground v.1.15,2013-10-02 07:44:00,
2013-10-02 00:50:00,53.7,28.7,29.87,NW,308,0.0,0.0,38,0.00,,,0.00,Wunderground v.1.15,2013-10-02 07:50:00,
2013-10-02 00:56:00,53.5,28.5,29.88,NNE,14,0.0,0.0,38,0.00,,,0.00,Wunderground v.1.15,2013-10-02 07:56:00,
2013-10-02 01:02:00,53.1,28.8,29.88,NW,309,0.0,0.0,39,0.00,,,0.00,Wunderground v.1.15,2013-10-02 08:02:00,
2013-10-02 01:08:00,52.9,28.6,29.88,NNW,345,0.0,0.0,39,0.00,,,0.00,Wunderground v.1.15,2013-10-02 08:08:00,
2013-10-02 01:13:00,51.9,28.3,29.88,NW,305,0.0,0.0,40,0.00,,,0.00,Wunderground v.1.15,2013-10-02 08:13:00,
2013-10-02 01:19:00,51.9,28.3,29.88,WNW,294,0.0,0.0,40,0.00,,,0.00,Wunderground v.1.15,2013-10-02 08:19:00,
2013-10-02 01:25:00,52.0,28.4,29.88,WNW,290,0.0,0.0,40,0.00,,,0.00,Wunderground v.1.15,2013-10-02 08:25:00,
2013-10-02 01:30:00,51.8,27.6,29.88,WNW,287,0.0,0.0,39,0.00,,,0.00,Wunderground v.1.15,2013-10-02 08:30:00,
2013-10-02 01:36:00,51.6,28.0,29.88,NW,318,0.0,0.0,40,0.00,,,0.00,Wunderground v.1.15,2013-10-02 08:36:00,
2013-10-02 01:42:00,51.6,28.0,29.88,NNW,338,0.0,0.0,40,0.00,,,0.00,Wunderground v.1.15,2013-10-02 08:42:00,
2013-10-02 01:48:00,51.4,27.9,29.88,NW,320,0.0,0.0,40,0.00,,,0.00,Wunderground v.1.15,2013-10-02 08:48:00,
2013-10-02 01:53:00,51.3,27.8,29.88,NNW,337,0.0,0.0,40,0.00,,,0.00,Wunderground v.1.15,2013-10-02 08:53:00,
2013-10-02 01:59:00,51.4,27.9,29.88,NNW,340,0.0,0.0,40,0.00,,,0.00,Wunderground v.1.15,2013-10-02 08:59:00,
2013-10-02 02:05:00,51.1,27.6,29.88,NNW,347,0.0,0.0,40,0.00,,,0.00,Wunderground v.1.15,2013-10-02 09:05:00,
2013-10-02 02:10:00,50.3,27.5,29.88,North,360,0.0,0.0,41,0.00,,,0.00,Wunderground v.1.15,2013-10-02 09:10:00,
2013-10-02 02:16:00,50.2,27.4,29.88,NW,318,0.0,0.0,41,0.00,,,0.00,Wunderground v.1.15,2013-10-02 09:16:00,
2013-10-02 02:22:00,50.6,27.7,29.88,North,4,0.0,0.0,41,0.00,,,0.00,Wunderground v.1.15,2013-10-02 09:22:00,
2013-10-02 02:28:00,50.3,26.9,29.88,NNW,346,0.0,0.0,40,0.00,,,0.00,Wunderground v.1.15,2013-10-02 09:28:00,
2013-10-02 02:34:00,49.7,26.9,29.88,NNW,340,0.0,0.0,41,0.00,,,0.00,Wunderground v.1.15,2013-10-02 09:34:00,
2013-10-02 02:39:00,49.6,27.4,29.87,NW,308,0.0,0.0,42,0.00,,,0.00,Wunderground v.1.15,2013-10-02 09:39:00,
2013-10-02 02:45:00,49.1,27.0,29.87,West,281,0.0,0.0,42,0.00,,,0.00,Wunderground v.1.15,2013-10-02 09:45:00,
2013-10-02 02:51:00,48.9,26.8,29.87,West,277,0.0,0.0,42,0.00,,,0.00,Wunderground v.1.15,2013-10-02 09:51:00,
2013-10-02 02:56:00,48.9,26.8,29.87,NW,315,0.0,0.0,42,0.00,,,0.00,Wunderground v.1.15,2013-10-02 09:56:00,
2013-10-02 03:02:00,49.7,26.9,29.87,North,352,0.0,0.0,41,0.00,,,0.00,Wunderground v.1.15,2013-10-02 10:02:00,
2013-10-02 03:08:00,49.8,26.4,29.87,NNW,347,0.0,0.0,40,0.00,,,0.00,Wunderground v.1.15,2013-10-02 10:08:00,
2013-10-02 03:13:00,49.5,26.7,29.87,NNW,342,0.0,0.0,41,0.00,,,0.00,Wunderground v.1.15,2013-10-02 10:13:00,
2013-10-02 03:19:00,49.1,26.4,29.87,NNW,340,0.0,0.0,41,0.00,,,0.00,Wunderground v.1.15,2013-10-02 10:19:00,
2013-10-02 03:25:00,48.9,26.2,29.87,North,354,0.0,0.0,41,0.00,,,0.00,Wunderground v.1.15,2013-10-02 10:25:00,
2013-10-02 03:31:00,48.4,25.8,29.87,NNW,328,0.0,0.0,41,0.00,,,0.00,Wunderground v.1.15,2013-10-02 10:31:00,
2013-10-02 03:36:00,47.7,25.7,29.87,West,275,0.0,0.0,42,0.00,,,0.00,Wunderground v.1.15,2013-10-02 10:36:00,
2013-10-02 03:42:00,47.5,25.5,29.87,West,275,0.0,0.0,42,0.00,,,0.00,Wunderground v.1.15,2013-10-02 10:42:00,
2013-10-02 03:48:00,47.7,25.7,29.87,NNE,15,0.0,0.0,42,0.00,,,0.00,Wunderground v.1.15,2013-10-02 10:48:00,
2013-10-02 03:53:00,47.4,25.4,29.87,North,7,0.0,0.0,42,0.00,,,0.00,Wunderground v.1.15,2013-10-02 10:53:00,
2013-10-02 03:59:00,47.2,25.8,29.87,NW,325,0.0,0.0,43,0.00,,,0.00,Wunderground v.1.15,2013-10-02 10:59:00,
2013-10-02 04:05:00,46.8,25.5,29.87,NW,325,0.0,0.0,43,0.00,,,0.00,Wunderground v.1.15,2013-10-02 11:05:00,
2013-10-02 04:10:00,46.8,26.0,29.87,NW,304,0.0,0.0,44,0.00,,,0.00,Wunderground v.1.15,2013-10-02 11:10:00,
2013-10-02 04:16:00,47.0,26.2,29.87,WNW,293,0.0,0.0,44,0.00,,,0.00,Wunderground v.1.15,2013-10-02 11:16:00,
2013-10-02 04:21:00,46.5,25.7,29.87,WNW,288,0.0,0.0,44,0.00,,,0.00,Wunderground v.1.15,2013-10-02 11:21:00,
2013-10-02 04:27:00,46.2,26.0,29.88,WNW,284,0.0,0.0,45,0.00,,,0.00,Wunderground v.1.15,2013-10-02 11:27:00,
2013-10-02 04:33:00,45.5,25.4,29.87,West,280,0.0,0.0,45,0.00,,,0.00,Wunderground v.1.15,2013-10-02 11:33:00,
2013-10-02 04:38:00,45.7,26.1,29.88,West,281,0.0,0.0,46,0.00,,,0.00,Wunderground v.1.15,2013-10-02 11:38:00,
2013-10-02 04:44:00,45.9,25.7,29.87,West,281,0.0,0.0,45,0.00,,,0.00,Wunderground v.1.15,2013-10-02 11:44:00,
2013-10-02 04:49:00,45.8,26.2,29.87,West,281,0.0,0.0,46,0.00,,,0.00,Wunderground v.1.15,2013-10-02 11:49:00,
2013-10-02 04:55:00,46.0,26.4,29.87,NW,316,0.0,1.0,46,0.00,,,0.00,Wunderground v.1.15,2013-10-02 11:55:00,
2013-10-02 05:00:00,45.9,25.7,29.87,NW,316,0.0,0.0,45,0.00,,,0.00,Wunderground v.1.15,2013-10-02 12:00:00,
2013-10-02 05:06:00,45.4,25.8,29.87,West,281,0.0,0.0,46,0.00,,,0.00,Wunderground v.1.15,2013-10-02 12:06:00,
2013-10-02 05:11:00,45.0,25.4,29.88,West,271,0.0,0.0,46,0.00,,,0.00,Wunderground v.1.15,2013-10-02 12:11:00,
2013-10-02 05:17:00,44.9,25.9,29.87,West,273,0.0,1.0,47,0.00,,,0.00,Wunderground v.1.15,2013-10-02 12:17:00,
2013-10-02 05:22:00,45.2,26.1,29.87,West,273,0.0,1.0,47,0.00,,,0.00,Wunderground v.1.15,2013-10-02 12:22:00,
2013-10-02 05:28:00,45.4,25.8,29.87,West,274,0.0,1.0,46,0.00,,,0.00,Wunderground v.1.15,2013-10-02 12:28:00,
2013-10-02 05:34:00,45.0,26.0,29.87,West,273,0.0,0.0,47,0.00,,,0.00,Wunderground v.1.15,2013-10-02 12:34:00,
2013-10-02 05:39:00,44.7,26.2,29.88,West,274,0.0,0.0,48,0.00,,,0.00,Wunderground v.1.15,2013-10-02 12:39:00,
2013-10-02 05:46:00,43.8,25.4,29.87,West,274,0.0,0.0,48,0.00,,,0.00,Wunderground v.1.15,2013-10-02 12:46:00,
2013-10-02 05:52:00,43.8,25.4,29.87,West,274,0.0,0.0,48,0.00,,,0.00,Wunderground v.1.15,2013-10-02 12:52:00,
2013-10-02 05:57:00,-999.9,-99.9,29.87,North,32767,-999.0,0.0,255,-99.99,,,0.00,Wunderground v.1.15,2013-10-02 12:57:00,
2013-10-02 06:02:00,-999.9,-99.9,29.87,North,32767,-999.0,0.0,255,-99.99,,,0.00,Wunderground v.1.15,2013-10-02 13:02:00,
2013-10-02 06:08:00,-999.9,-99.9,29.87,North,32767,-999.0,0.0,255,-99.99,,,0.00,Wunderground v.1.15,2013-10-02 13:08:00,
2013-10-02 06:13:00,-999.9,-99.9,29.87,North,32767,-999.0,0.0,255,-99.99,,,0.00,Wunderground v.1.15,2013-10-02 13:13:00,
2013-10-02 06:18:00,-999.9,-99.9,29.87,North,32767,-999.0,0.0,255,-99.99,,,0.00,Wunderground v.1.15,2013-10-02 13:18:00,
2013-10-02 06:24:00,-999.9,-99.9,29.87,North,32767,-999.0,0.0,255,-99.99,,,0.00,Wunderground v.1.15,2013-10-02 13:24:00,
2013-10-02 06:29:00,-999.9,-99.9,29.87,North,32767,-999.0,0.0,255,-99.99,,,0.00,Wunderground v.1.15,2013-10-02 13:29:00,
2013-10-02 06:34:00,-999.9,-99.9,29.86,North,32767,-999.0,0.0,255,-99.99,,,0.00,Wunderground v.1.15,2013-10-02 13:34:00,
2013-10-02 06:40:00,-999.9,-99.9,29.87,North,32767,-999.0,0.0,255,-99.99,,,0.00,Wunderground v.1.15,2013-10-02 13:40:00,
2013-10-02 06:46:00,-999.9,-99.9,29.86,North,32767,-999.0,0.0,255,-99.99,,,0.00,Wunderground v.1.15,2013-10-02 13:46:00,
2013-10-02 06:52:00,-999.9,-99.9,29.86,North,32767,-999.0,0.0,255,-99.99,,,0.00,Wunderground v.1.15,2013-10-02 13:52:00,
2013-10-02 06:57:00,-999.9,-99.9,29.86,North,32767,-999.0,0.0,255,-99.99,,,0.00,Wunderground v.1.15,2013-10-02 13:57:00,
2013-10-02 07:03:00,-999.9,-99.9,29.86,North,32767,-999.0,0.0,255,-99.99,,,0.00,Wunderground v.1.15,2013-10-02 14:03:00,
2013-10-02 07:09:00,-999.9,-99.9,29.86,North,32767,-999.0,0.0,255,-99.99,,,0.00,Wunderground v.1.15,2013-10-02 14:09:00,
2013-10-02 07:15:00,-999.9,-99.9,29.86,North,32767,-999.0,0.0,255,-99.99,,,0.00,Wunderground v.1.15,2013-10-02 14:15:00,
2013-10-02 07:21:00,-999.9,-99.9,29.86,North,32767,-999.0,0.0,255,-99.99,,,0.00,Wunderground v.1.15,2013-10-02 14:21:00,
2013-10-02 07:26:00,43.5,26.1,29.86,WSW,255,0.0,0.0,50,0.00,,,0.00,Wunderground v.1.15,2013-10-02 14:26:00,
2013-10-02 07:32:00,43.2,26.3,29.86,WSW,255,0.0,0.0,51,0.00,,,0.00,Wunderground v.1.15,2013-10-02 14:32:00,
2013-10-02 07:37:00,43.8,26.3,29.87,WSW,255,0.0,0.0,50,0.00,,,0.00,Wunderground v.1.15,2013-10-02 14:37:00,
2013-10-02 07:43:00,44.0,26.5,29.87,WSW,255,0.0,0.0,50,0.00,,,0.00,Wunderground v.1.15,2013-10-02 14:43:00,
2013-10-02 07:48:00,44.1,26.1,29.88,West,261,0.0,0.0,49,0.00,,,0.00,Wunderground v.1.15,2013-10-02 14:48:00,
2013-10-02 07:54:00,43.9,25.5,29.88,WSW,255,0.0,1.0,48,0.00,,,0.00,Wunderground v.1.15,2013-10-02 14:54:00,
2013-10-02 08:00:00,44.0,25.5,29.88,WSW,257,0.0,0.0,48,0.00,,,0.00,Wunderground v.1.15,2013-10-02 15:00:00,
2013-10-02 08:05:00,44.4,25.9,29.88,West,274,0.0,0.0,48,0.00,,,0.00,Wunderground v.1.15,2013-10-02 15:05:00,
2013-10-02 08:11:00,44.8,26.3,29.89,West,264,0.0,0.0,48,0.00,,,0.00,Wunderground v.1.15,2013-10-02 15:11:00,
2013-10-02 08:17:00,45.1,26.1,29.88,SW,234,0.0,0.0,47,0.00,,,0.00,Wunderground v.1.15,2013-10-02 15:17:00,
2013-10-02 08:22:00,45.5,26.4,29.89,WSW,255,0.0,0.0,47,0.00,,,0.00,Wunderground v.1.15,2013-10-02 15:22:00,
2013-10-02 08:28:00,46.0,26.4,29.89,West,259,0.0,0.0,46,0.00,,,0.00,Wunderground v.1.15,2013-10-02 15:28:00,
2013-10-02 08:34:00,46.5,26.8,29.89,WSW,245,0.0,0.0,46,0.00,,,0.00,Wunderground v.1.15,2013-10-02 15:34:00,
2013-10-02 08:39:00,47.0,26.7,29.89,WSW,238,0.0,0.0,45,0.00,,,0.00,Wunderground v.1.15,2013-10-02 15:39:00,
2013-10-02 08:40:00,47.1,26.8,29.89,WSW,238,0.0,0.0,45,0.00,,,0.00,Wunderground v.1.15,2013-10-02 15:40:00,
2013-10-02 08:45:00,47.5,26.6,29.89,WSW,240,0.0,0.0,44,0.00,,,0.00,Wunderground v.1.15,2013-10-02 15:45:00,
2013-10-02 08:50:00,48.0,27.1,29.89,SSW,212,0.0,0.0,44,0.00,,,0.00,Wunderground v.1.15,2013-10-02 15:50:00,
2013-10-02 08:56:00,48.7,27.2,29.89,SSE,160,0.0,0.0,43,0.00,,,0.00,Wunderground v.1.15,2013-10-02 15:56:00,
2013-10-02 09:02:00,48.8,28.4,29.89,SSE,156,0.0,0.0,45,0.00,,,0.00,Wunderground v.1.15,2013-10-02 16:02:00,
2013-10-02 09:08:00,49.0,27.5,29.89,South,178,0.0,0.0,43,0.00,,,0.00,Wunderground v.1.15,2013-10-02 16:08:00,
2013-10-02 09:13:00,48.9,27.9,29.88,SSE,154,0.0,0.0,44,0.00,,,0.00,Wunderground v.1.15,2013-10-02 16:13:00,
2013-10-02 09:19:00,49.2,27.6,29.88,South,180,0.0,0.0,43,0.00,,,0.00,Wunderground v.1.15,2013-10-02 16:19:00,
2013-10-02 09:24:00,49.5,27.9,29.88,SSE,148,0.0,0.0,43,0.00,,,0.00,Wunderground v.1.15,2013-10-02 16:24:00,
2013-10-02 09:30:00,49.6,27.4,29.88,SSE,149,0.0,0.0,42,0.00,,,0.00,Wunderground v.1.15,2013-10-02 16:30:00,
2013-10-02 09:36:00,49.9,27.7,29.88,SE,128,0.0,0.0,42,0.00,,,0.00,Wunderground v.1.15,2013-10-02 16:36:00,
2013-10-02 09:41:00,50.1,27.3,29.88,SE,124,0.0,0.0,41,0.00,,,0.00,Wunderground v.1.15,2013-10-02 16:41:00,
2013-10-02 09:47:00,50.4,27.6,29.88,ESE,120,0.0,0.0,41,0.00,,,0.00,Wunderground v.1.15,2013-10-02 16:47:00,
2013-10-02 09:53:00,50.5,27.7,29.88,SE,130,0.0,0.0,41,0.00,,,0.00,Wunderground v.1.15,2013-10-02 16:53:00,
2013-10-02 09:58:00,50.5,27.7,29.87,SE,131,0.0,0.0,41,0.00,,,0.00,Wunderground v.1.15,2013-10-02 16:58:00,
2013-10-02 10:04:00,50.4,27.6,29.87,ESE,113,0.0,0.0,41,0.00,,,0.00,Wunderground v.1.15,2013-10-02 17:04:00,
2013-10-02 10:10:00,50.5,27.7,29.87,SSE,153,0.0,0.0,41,0.00,,,0.00,Wunderground v.1.15,2013-10-02 17:10:00,
2013-10-02 10:16:00,50.4,27.6,29.88,East,96,0.0,0.0,41,0.00,,,0.00,Wunderground v.1.15,2013-10-02 17:16:00,
2013-10-02 10:21:00,50.6,27.7,29.88,ESE,113,0.0,0.0,41,0.00,,,0.00,Wunderground v.1.15,2013-10-02 17:21:00,
2013-10-02 10:27:00,50.6,27.7,29.88,SE,137,0.0,0.0,41,0.00,,,0.00,Wunderground v.1.15,2013-10-02 17:27:00,
2013-10-02 10:33:00,50.8,27.9,29.88,ENE,72,0.0,0.0,41,0.00,,,0.00,Wunderground v.1.15,2013-10-02 17:33:00,
2013-10-02 10:39:00,50.9,28.0,29.87,SSW,198,0.0,0.0,41,0.00,,,0.00,Wunderground v.1.15,2013-10-02 17:39:00,
2013-10-02 10:44:00,51.5,27.9,29.87,SSW,203,0.0,0.0,40,0.00,,,0.00,Wunderground v.1.15,2013-10-02 17:44:00,
2013-10-02 10:50:00,51.8,28.2,29.87,SSE,153,0.0,0.0,40,0.00,,,0.00,Wunderground v.1.15,2013-10-02 17:50:00,
2013-10-02 10:56:00,52.0,27.8,29.87,ENE,69,0.0,0.0,39,0.00,,,0.00,Wunderground v.1.15,2013-10-02 17:56:00,
2013-10-02 11:02:00,52.1,27.9,29.87,SE,142,0.0,0.0,39,0.00,,,0.00,Wunderground v.1.15,2013-10-02 18:02:00,
2013-10-02 11:07:00,52.4,28.1,29.87,ESE,111,0.0,0.0,39,0.00,,,0.00,Wunderground v.1.15,2013-10-02 18:07:00,
2013-10-02 11:13:00,52.8,27.9,29.87,ENE,77,0.0,0.0,38,0.00,,,0.00,Wunderground v.1.15,2013-10-02 18:13:00,
2013-10-02 11:19:00,53.3,27.7,29.87,North,349,0.0,0.0,37,0.00,,,0.00,Wunderground v.1.15,2013-10-02 18:19:00,
2013-10-02 11:25:00,53.8,28.1,29.87,NW,319,0.0,0.0,37,0.00,,,0.00,Wunderground v.1.15,2013-10-02 18:25:00,
2013-10-02 11:30:00,54.5,28.7,29.87,ENE,68,0.0,0.0,37,0.00,,,0.00,Wunderground v.1.15,2013-10-02 18:30:00,
2013-10-02 11:36:00,55.2,28.0,29.86,South,172,0.0,0.0,35,0.00,,,0.00,Wunderground v.1.15,2013-10-02 18:36:00,
2013-10-02 11:42:00,55.3,28.1,29.86,ENE,77,0.0,0.0,35,0.00,,,0.00,Wunderground v.1.15,2013-10-02 18:42:00,
2013-10-02 11:48:00,55.8,28.5,29.86,ESE,108,0.0,0.0,35,0.00,,,0.00,Wunderground v.1.15,2013-10-02 18:48:00,
2013-10-02 11:53:00,57.0,28.1,29.85,East,86,0.0,0.0,33,0.00,,,0.00,Wunderground v.1.15,2013-10-02 18:53:00,
2013-10-02 11:59:00,56.5,28.4,29.85,NW,315,0.0,0.0,34,0.00,,,0.00,Wunderground v.1.15,2013-10-02 18:59:00,
2013-10-02 12:05:00,56.8,28.7,29.85,SSE,150,0.0,0.0,34,0.00,,,0.00,Wunderground v.1.15,2013-10-02 19:05:00,
2013-10-02 12:10:00,56.8,28.7,29.85,SSE,149,0.0,0.0,34,0.00,,,0.00,Wunderground v.1.15,2013-10-02 19:10:00,
2013-10-02 12:16:00,56.8,28.7,29.84,ESE,111,0.0,0.0,34,0.00,,,0.00,Wunderground v.1.15,2013-10-02 19:16:00,
2013-10-02 12:22:00,57.0,28.9,29.84,WNW,297,0.0,0.0,34,0.00,,,0.00,Wunderground v.1.15,2013-10-02 19:22:00,
2013-10-02 12:27:00,57.5,28.6,29.84,ENE,59,0.0,0.0,33,0.00,,,0.00,Wunderground v.1.15,2013-10-02 19:27:00,
2013-10-02 12:33:00,57.6,28.7,29.83,ENE,66,0.0,0.0,33,0.00,,,0.00,Wunderground v.1.15,2013-10-02 19:33:00,
2013-10-02 12:39:00,58.4,29.4,29.83,SW,218,0.0,0.0,33,0.00,,,0.00,Wunderground v.1.15,2013-10-02 19:39:00,
2013-10-02 12:45:00,59.4,28.7,29.83,ENE,68,0.0,0.0,31,0.00,,,0.00,Wunderground v.1.15,2013-10-02 19:45:00,
2013-10-02 12:50:00,59.3,28.6,29.83,ENE,63,0.0,0.0,31,0.00,,,0.00,Wunderground v.1.15,2013-10-02 19:50:00,
2013-10-02 12:56:00,59.6,28.9,29.83,SE,145,0.0,0.0,31,0.00,,,0.00,Wunderground v.1.15,2013-10-02 19:56:00,
2013-10-02 13:01:00,60.1,28.5,29.82,South,179,0.0,0.0,30,0.00,,,0.00,Wunderground v.1.15,2013-10-02 20:01:00,
2013-10-02 13:07:00,61.0,28.5,29.81,SSE,157,0.0,0.0,29,0.00,,,0.00,Wunderground v.1.15,2013-10-02 20:07:00,
2013-10-02 13:13:00,62.1,28.6,29.81,SE,146,0.0,0.0,28,0.00,,,0.00,Wunderground v.1.15,2013-10-02 20:13:00,
2013-10-02 13:19:00,62.6,29.0,29.81,SSE,158,0.0,0.0,28,0.00,,,0.00,Wunderground v.1.15,2013-10-02 20:19:00,
2013-10-02 13:24:00,63.3,28.7,29.81,SW,223,0.0,0.0,27,0.00,,,0.00,Wunderground v.1.15,2013-10-02 20:24:00,
2013-10-02 13:30:00,63.8,28.2,29.80,SSW,200,0.0,0.0,26,0.00,,,0.00,Wunderground v.1.15,2013-10-02 20:30:00,
2013-10-02 13:36:00,63.8,28.2,29.80,SSW,205,0.0,0.0,26,0.00,,,0.00,Wunderground v.1.15,2013-10-02 20:36:00,
2013-10-02 13:41:00,64.4,27.8,29.79,South,183,0.0,0.0,25,0.00,,,0.00,Wunderground v.1.15,2013-10-02 20:41:00,
2013-10-02 13:47:00,64.4,27.8,29.79,SSE,150,0.0,0.0,25,0.00,,,0.00,Wunderground v.1.15,2013-10-02 20:47:00,
2013-10-02 13:53:00,64.5,28.8,29.79,ENE,62,0.0,0.0,26,0.00,,,0.00,Wunderground v.1.15,2013-10-02 20:53:00,
2013-10-02 13:59:00,64.3,27.7,29.78,East,98,0.0,0.0,25,0.00,,,0.00,Wunderground v.1.15,2013-10-02 20:59:00,
2013-10-02 14:04:00,64.8,27.1,29.78,East,101,0.0,0.0,24,0.00,,,0.00,Wunderground v.1.15,2013-10-02 21:04:00,
2013-10-02 14:10:00,65.0,27.3,29.77,NNE,27,0.0,0.0,24,0.00,,,0.00,Wunderground v.1.15,2013-10-02 21:10:00,
2013-10-02 14:16:00,65.9,25.9,29.77,SSW,202,0.0,0.0,22,0.00,,,0.00,Wunderground v.1.15,2013-10-02 21:16:00,
2013-10-02 14:22:00,66.6,27.6,29.76,ESE,115,0.0,0.0,23,0.00,,,0.00,Wunderground v.1.15,2013-10-02 21:22:00,
2013-10-02 14:27:00,66.6,26.5,29.75,East,98,0.0,0.0,22,0.00,,,0.00,Wunderground v.1.15,2013-10-02 21:27:00,
2013-10-02 14:33:00,66.9,25.7,29.75,East,93,0.0,0.0,21,0.00,,,0.00,Wunderground v.1.15,2013-10-02 21:33:00,
2013-10-02 14:39:00,67.5,27.3,29.75,East,91,0.0,0.0,22,0.00,,,0.00,Wunderground v.1.15,2013-10-02 21:39:00,
2013-10-02 14:44:00,66.9,27.9,29.75,East,82,0.0,0.0,23,0.00,,,0.00,Wunderground v.1.15,2013-10-02 21:44:00,
2013-10-02 14:49:00,67.1,28.0,29.74,ENE,78,0.0,0.0,23,0.00,,,0.00,Wunderground v.1.15,2013-10-02 21:49:00,
2013-10-02 14:55:00,67.3,27.1,29.74,East,91,0.0,0.0,22,0.00,,,0.00,Wunderground v.1.15,2013-10-02 21:55:00,
2013-10-02 15:00:00,67.1,26.9,29.74,ESE,109,0.0,0.0,22,0.00,,,0.00,Wunderground v.1.15,2013-10-02 22:00:00,
2013-10-02 15:06:00,67.4,27.2,29.73,SE,136,0.0,0.0,22,0.00,,,0.00,Wunderground v.1.15,2013-10-02 22:06:00,
2013-10-02 15:12:00,68.4,28.0,29.73,SE,124,0.0,0.0,22,0.00,,,0.00,Wunderground v.1.15,2013-10-02 22:12:00,
2013-10-02 15:18:00,69.4,27.7,29.73,SE,124,0.0,0.0,21,0.00,,,0.00,Wunderground v.1.15,2013-10-02 22:18:00,
2013-10-02 15:24:00,69.3,27.7,29.73,SSE,148,0.0,0.0,21,0.00,,,0.00,Wunderground v.1.15,2013-10-02 22:24:00,
2013-10-02 15:29:00,70.1,21.8,29.72,SSE,148,0.0,0.0,16,0.00,,,0.00,Wunderground v.1.15,2013-10-02 22:29:00,
2013-10-02 15:35:00,71.4,22.8,29.72,North,10,0.0,0.0,16,0.00,,,0.00,Wunderground v.1.15,2013-10-02 22:35:00,
2013-10-02 15:40:00,71.4,24.3,29.71,ESE,115,0.0,0.0,17,0.00,,,0.00,Wunderground v.1.15,2013-10-02 22:40:00,
2013-10-02 15:46:00,70.8,25.2,29.72,ENE,60,0.0,0.0,18,0.00,,,0.00,Wunderground v.1.15,2013-10-02 22:46:00,
2013-10-02 15:51:00,70.2,24.7,29.73,SE,136,0.0,0.0,18,0.00,,,0.00,Wunderground v.1.15,2013-10-02 22:51:00,
2013-10-02 15:57:00,71.8,9.9,29.73,WNW,295,0.0,0.0,9,0.00,,,0.00,Wunderground v.1.15,2013-10-02 22:57:00,
2013-10-02 16:03:00,72.7,7.9,29.73,West,269,0.0,0.0,8,0.00,,,0.00,Wunderground v.1.15,2013-10-02 23:03:00,
2013-10-02 16:08:00,73.0,8.1,29.73,West,270,0.0,0.0,8,0.00,,,0.00,Wunderground v.1.15,2013-10-02 23:08:00,
2013-10-02 16:13:00,72.8,5.0,29.73,West,275,0.0,0.0,7,0.00,,,0.00,Wunderground v.1.15,2013-10-02 23:13:00,
2013-10-02 16:19:00,72.9,5.1,29.73,WSW,248,0.0,0.0,7,0.00,,,0.00,Wunderground v.1.15,2013-10-02 23:19:00,
2013-10-02 16:25:00,72.9,5.1,29.73,West,277,0.0,0.0,7,0.00,,,0.00,Wunderground v.1.15,2013-10-02 23:25:00,
2013-10-02 16:30:00,72.9,5.1,29.73,West,261,0.0,0.0,7,0.00,,,0.00,Wunderground v.1.15,2013-10-02 23:30:00,
2013-10-02 16:36:00,72.6,4.9,29.73,WSW,251,0.0,0.0,7,0.00,,,0.00,Wunderground v.1.15,2013-10-02 23:36:00,
2013-10-02 16:42:00,72.7,5.0,29.73,WSW,258,0.0,0.0,7,0.00,,,0.00,Wunderground v.1.15,2013-10-02 23:42:00,